When you browse on this site, cookies collect data to enhance your experience and personalize the content and advertising you see.
Visit our Privacy Policy to learn more. By continuing to use the site, you agree to this use of cookies and data.
  • In United Kingdom
  • List of Countries
  • For 7 days
  • Water Temperature
  • Satellite Maps
  • Weather Map
  • Weather Widgets
  • user-avatar
    Login

    Hourly Weather Lankaran

    Today, 23 February, Saturday

    Time Temperature Precipitation Wind Pressure Humidity
    00:00 -2°C° 0 mm 2 mps 632 mmHg 55%
    01:00 -2°C° 0 mm 2 mps 632 mmHg 56%
    02:00 -2°C° 0 mm 2 mps 632 mmHg 57%
    03:00 -2°C° 0 mm 3 mps 632 mmHg 57%
    04:00 -4°C° 0 mm 3 mps 632 mmHg 58%
    05:00 -4°C° 0 mm 3 mps 632 mmHg 58%
    06:00 -4°C° 0 mm 3 mps 632 mmHg 58%
    07:00 -1°C° 0 mm 2 mps 633 mmHg 55%
    08:00 +1°C° 0 mm 2 mps 633 mmHg 52%
    09:00 +3°C° 0 mm 2 mps 635 mmHg 49%
    10:00 +4°C° 0 mm 2 mps 635 mmHg 48%
    11:00 +4°C° 0 mm 2 mps 635 mmHg 48%
    12:00 +5°C° 0 mm 2 mps 635 mmHg 47%
    13:00 +5°C° 0 mm 2 mps 635 mmHg 48%
    14:00 +5°C° 0 mm 2 mps 635 mmHg 49%
    15:00 +5°C° 0 mm 2 mps 635 mmHg 51%
    16:00 +4°C° 0 mm 2 mps 634 mmHg 55%
    17:00 +3°C° 0 mm 2 mps 634 mmHg 60%
    18:00 +2°C° 0 mm 1 mps 634 mmHg 65%
    19:00 +2°C° 0 mm 1 mps 634 mmHg 63%
    20:00 +2°C° 0 mm 1 mps 634 mmHg 62%
    21:00 +1°C° 0 mm 1 mps 634 mmHg 61%
    22:00 +1°C° 0 mm 1 mps 634 mmHg 59%
    23:00 +1°C° 0 mm 1 mps 634 mmHg 57%

    Tomorrow, 24 February, Sunday

    Time Temperature Precipitation Wind Pressure Humidity
    00:00 -1°C° 0 mm 2 mps 634 mmHg 56%
    01:00 -1°C° 0 mm 2 mps 634 mmHg 54%
    02:00 -2°C° 0 mm 2 mps 634 mmHg 53%
    03:00 -2°C° 0 mm 2 mps 634 mmHg 52%
    04:00 -2°C° 0 mm 2 mps 634 mmHg 51%
    05:00 0°C° 0 mm 1 mps 634 mmHg 51%
    06:00 0°C° 0 mm 1 mps 634 mmHg 50%
    07:00 +1°C° 0 mm 1 mps 634 mmHg 47%
    08:00 +2°C° 0 mm 1 mps 635 mmHg 45%
    09:00 +2°C° 0 mm 0 mps 636 mmHg 42%
    10:00 +4°C° 0 mm 1 mps 636 mmHg 44%
    11:00 +5°C° 0 mm 1 mps 636 mmHg 46%
    12:00 +4°C° 0 mm 2 mps 636 mmHg 49%
    13:00 +5°C° 0 mm 1 mps 636 mmHg 52%
    14:00 +5°C° 0 mm 1 mps 635 mmHg 55%
    15:00 +5°C° 0 mm 1 mps 635 mmHg 58%
    16:00 +4°C° 0 mm 1 mps 635 mmHg 65%
    17:00 +3°C° 0 mm 1 mps 635 mmHg 71%
    18:00 +2°C° 0 mm 1 mps 635 mmHg 78%
    19:00 +2°C° 0 mm 1 mps 635 mmHg 78%
    20:00 +1°C° 0 mm 1 mps 635 mmHg 79%
    21:00 +1°C° 0 mm 1 mps 635 mmHg 79%
    22:00 +1°C° 0 mm 1 mps 635 mmHg 74%
    23:00 +1°C° 0 mm 1 mps 635 mmHg 70%

    Day after tomorrow, 25 February, Monday

    Time Temperature Precipitation Wind Pressure Humidity
    00:00 0°C° 0 mm 1 mps 635 mmHg 65%
    01:00 0°C° 0 mm 1 mps 635 mmHg 62%
    02:00 0°C° 0 mm 1 mps 635 mmHg 59%
    03:00 0°C° 0 mm 1 mps 635 mmHg 56%
    04:00 0°C° 0 mm 1 mps 635 mmHg 54%
    05:00 -1°C° 0 mm 1 mps 635 mmHg 53%
    06:00 -1°C° 0 mm 1 mps 635 mmHg 52%
    07:00 0°C° 0 mm 1 mps 635 mmHg 50%
    08:00 +1°C° 0 mm 1 mps 636 mmHg 47%
    09:00 +2°C° 0 mm 1 mps 636 mmHg 45%
    10:00 +3°C° 0 mm 1 mps 636 mmHg 47%
    11:00 +4°C° 0 mm 1 mps 636 mmHg 48%
    12:00 +3°C° 0 mm 2 mps 636 mmHg 49%
    13:00 +3°C° 0 mm 2 mps 636 mmHg 50%
    14:00 +3°C° 0 mm 2 mps 635 mmHg 51%
    15:00 +3°C° 0 mm 2 mps 635 mmHg 52%
    16:00 +3°C° 0 mm 2 mps 634 mmHg 56%
    17:00 +3°C° 0 mm 1 mps 634 mmHg 60%
    18:00 +2°C° 0 mm 1 mps 633 mmHg 65%
    19:00 +2°C° 0 mm 1 mps 633 mmHg 64%
    20:00 +1°C° 0 mm 1 mps 633 mmHg 63%
    21:00 +1°C° 0 mm 1 mps 633 mmHg 62%
    22:00 +1°C° 0 mm 1 mps 633 mmHg 60%
    23:00 +1°C° 0 mm 1 mps 633 mmHg 58%

    26 February, Tuesday

    Time Temperature Precipitation Wind Pressure Humidity
    00:00 -1°C° 0 mm 2 mps 632 mmHg 56%
    01:00 -1°C° 0 mm 2 mps 632 mmHg 54%
    02:00 0°C° 0 mm 1 mps 631 mmHg 53%
    03:00 0°C° 0 mm 1 mps 631 mmHg 51%
    04:00 0°C° 0 mm 1 mps 631 mmHg 51%
    05:00 -2°C° 0 mm 2 mps 630 mmHg 52%
    06:00 -2°C° 0 mm 2 mps 630 mmHg 52%
    07:00 +1°C° 0 mm 2 mps 630 mmHg 49%
    08:00 +2°C° 0 mm 2 mps 631 mmHg 47%
    09:00 +4°C° 0 mm 2 mps 631 mmHg 44%
    10:00 +4°C° 0 mm 3 mps 630 mmHg 42%
    11:00 +5°C° 0 mm 3 mps 630 mmHg 40%
    12:00 +6°C° 0 mm 4 mps 630 mmHg 37%
    13:00 +6°C° 0 mm 4 mps 629 mmHg 38%
    14:00 +6°C° 0 mm 4 mps 628 mmHg 39%
    15:00 +6°C° 0 mm 4 mps 627 mmHg 40%
    16:00 +5°C° 0 mm 4 mps 626 mmHg 45%
    17:00 +4°C° 0 mm 3 mps 625 mmHg 50%
    18:00 +3°C° 0 mm 3 mps 624 mmHg 55%
    19:00 +3°C° 0 mm 3 mps 624 mmHg 58%
    20:00 +2°C° 0 mm 3 mps 624 mmHg 61%
    21:00 +3°C° 0 mm 2 mps 624 mmHg 64%
    22:00 +3°C° 0.1 mm 2 mps 623 mmHg 66%
    23:00 +2°C° 0.1 mm 2 mps 622 mmHg 68%

    27 February, Wednesday

    Time Temperature Precipitation Wind Pressure Humidity
    00:00 +2°C° 0.1 mm 2 mps 622 mmHg 70%
    01:00 +2°C° 0 mm 2 mps 621 mmHg 74%
    02:00 +1°C° 0 mm 2 mps 621 mmHg 78%
    03:00 -1°C° 0 mm 2 mps 620 mmHg 82%
    04:00 -1°C° 0.8 mm 2 mps 621 mmHg 84%
    05:00 -1°C° 0.8 mm 2 mps 621 mmHg 85%
    06:00 -1°C° 0.8 mm 3 mps 621 mmHg 87%
    07:00 -1°C° 0.7 mm 2 mps 621 mmHg 87%
    08:00 -1°C° 0.7 mm 2 mps 621 mmHg 87%
    09:00 -1°C° 0.7 mm 2 mps 622 mmHg 88%
    10:00 -1°C° 0.6 mm 2 mps 622 mmHg 86%
    11:00 -1°C° 0.6 mm 2 mps 622 mmHg 85%
    12:00 -1°C° 0.6 mm 2 mps 622 mmHg 83%
    13:00 -1°C° 0.2 mm 3 mps 622 mmHg 83%
    14:00 -1°C° 0.2 mm 3 mps 622 mmHg 83%
    15:00 -1°C° 0.2 mm 3 mps 621 mmHg 82%
    16:00 -2°C° 0.5 mm 3 mps 621 mmHg 85%
    17:00 -2°C° 0.5 mm 2 mps 622 mmHg 87%
    18:00 -3°C° 0.5 mm 2 mps 622 mmHg 89%
    19:00 -3°C° 0.4 mm 2 mps 622 mmHg 89%
    20:00 -3°C° 0.4 mm 2 mps 622 mmHg 90%
    21:00 -3°C° 0.4 mm 2 mps 623 mmHg 90%
    22:00 -1°C° 0.4 mm 1 mps 623 mmHg 90%
    23:00 -1°C° 0.4 mm 1 mps 623 mmHg 90%

    28 February, Thursday

    Time Temperature Precipitation Wind Pressure Humidity
    00:00 -2°C° 0.4 mm 1 mps 623 mmHg 90%
    01:00 -2°C° 0.5 mm 1 mps 623 mmHg 91%
    02:00 -2°C° 0.5 mm 1 mps 622 mmHg 91%
    03:00 -2°C° 0.5 mm 1 mps 622 mmHg 91%
    04:00 -4°C° 0.3 mm 2 mps 622 mmHg 91%
    05:00 -4°C° 0.3 mm 2 mps 622 mmHg 91%
    06:00 -4°C° 0.3 mm 2 mps 622 mmHg 91%
    07:00 -4°C° 0.7 mm 2 mps 623 mmHg 89%
    08:00 -6°C° 0.7 mm 3 mps 623 mmHg 88%
    09:00 -6°C° 0.7 mm 3 mps 623 mmHg 87%
    10:00 -5°C° 1.6 mm 2 mps 623 mmHg 86%
    11:00 -5°C° 1.6 mm 2 mps 622 mmHg 86%
    12:00 -5°C° 1.6 mm 2 mps 622 mmHg 86%
    13:00 -3°C° 0.8 mm 1 mps 622 mmHg 85%
    14:00 -3°C° 0.8 mm 1 mps 622 mmHg 85%
    15:00 -3°C° 0.8 mm 1 mps 622 mmHg 84%
    16:00 -3°C° 0.7 mm 1 mps 622 mmHg 86%
    17:00 -3°C° 0.7 mm 1 mps 622 mmHg 87%
    18:00 -4°C° 0.7 mm 1 mps 622 mmHg 88%
    19:00 -4°C° 0.3 mm 1 mps 622 mmHg 88%
    20:00 -4°C° 0.3 mm 1 mps 622 mmHg 87%
    21:00 -4°C° 0.3 mm 1 mps 622 mmHg 87%
    22:00 -4°C° 0.1 mm 1 mps 622 mmHg 86%
    23:00 -6°C° 0.1 mm 1 mps 622 mmHg 85%
    Show more